Location: ????????
(54.9045°N, 39.1041°E)
Time: 02:20:48
(UTC+00:00)

BlueWalker 3 - Visible Passes

Search period start: 21 June 2024 00:00
Search period end: 01 July 2024 00:00
Orbit: 480 x 494 km, 53.2° (Epoch: 20 June)

Date Brightness Start Highest point End Pass type
(mag) Time Alt. Az. Time Alt. Az. Time Alt. Az.
21 Jun 2.2 19:00:04 10° SW 19:03:37 42° SSE 19:07:10 10° E visible
21 Jun 1.7 20:37:49 10° W 20:41:33 69° S 20:45:17 10° E visible
21 Jun 2.0 22:15:55 10° W 22:19:32 48° SSW 22:23:08 10° SE visible
22 Jun 1.8 20:12:07 10° W 20:15:51 69° S 20:19:35 10° E visible
22 Jun 2.0 21:50:12 10° W 21:53:50 49° SSW 21:57:28 10° ESE visible
22 Jun 3.3 23:28:48 10° W 23:31:24 18° SW 23:34:01 10° S visible
23 Jun 1.8 19:46:24 10° W 19:50:08 69° S 19:53:52 10° E visible
23 Jun 2.0 21:24:29 10° W 21:28:08 51° SSW 21:31:46 10° ESE visible
23 Jun 3.3 23:03:02 10° W 23:05:44 19° SW 23:08:25 10° S visible
24 Jun 1.8 19:20:42 10° WSW 19:24:25 68° S 19:28:09 10° E visible
24 Jun 2.0 20:58:46 10° W 21:02:25 52° SSW 21:06:04 10° ESE visible
24 Jun 3.2 22:37:16 10° W 22:40:02 20° SW 22:42:11 13° S visible
25 Jun 2.0 20:33:02 10° W 20:36:42 53° SSW 20:40:21 10° ESE visible
25 Jun 3.2 22:11:30 10° W 22:14:20 21° SW 22:15:43 17° S visible
26 Jun 2.0 20:07:18 10° W 20:10:58 55° SSW 20:14:38 10° ESE visible
26 Jun 3.2 21:45:43 10° W 21:48:37 22° SW 21:49:48 19° S visible
27 Jun 2.0 19:41:33 10° W 19:45:14 56° SSW 19:48:55 10° ESE visible
27 Jun 3.1 21:19:56 10° W 21:22:55 23° SW 21:24:08 19° S visible
28 Jun 2.0 19:15:48 10° W 19:19:29 57° SSW 19:23:10 10° ESE visible
28 Jun 3.1 20:54:09 10° W 20:57:11 23° SSW 20:58:39 19° S visible
29 Jun 3.1 20:28:22 10° W 20:31:27 24° SSW 20:33:16 17° S visible
30 Jun 3.1 20:02:34 10° W 20:05:43 26° SSW 20:07:57 15° SSE visible
